Weather History for Bogota, Colombia

Change the Weather History Date:

Sunday, March 3, 2013

  Actual Average Record
Temperature  
Mean Temperature 54 °F -  
Max Temperature 64 °F 65 °F 78 °F (2011)
Min Temperature 44 °F 45 °F 41 °F (2003)
Degree Days  
Heating Degree Days 11    
Growing Degree Days 4 (Base 50)    
Moisture  
Dew Point 47 °F    
Average Humidity 75    
Maximum Humidity 94    
Minimum Humidity 46    
Precipitation  
Precipitation 0.00 in 0.09 in - ()
Sea Level Pressure  
Sea Level Pressure 30.33 in    
Wind  
Wind Speed 5 mph ()    
Max Wind Speed 12 mph    
Max Gust Speed -    
Visibility 7.4 miles    
Events      
Averages and records for this station are not official NWS values.
T = Trace of Precipitation, MM = Missing Value Source: Averaged Metar Reports

Daily Weather History Graph

Daily Weather History Graph

Search for Another Location

Airport:

Trip Planner

Search our weather history database for the weather conditions in past years. The results will help you decide how hot, cold, wet, or windy it might be!

Date:

Astronomy

Mar. 03, 2013 Rise Set
Actual Time 6:07 AM COT 6:09 PM COT
Civil Twilight 5:46 AM COT 6:30 PM COT
Nautical Twilight 5:22 AM COT 6:54 PM COT
Astronomical Twilight 4:58 AM COT 7:18 PM COT
Moon 11:25 PM COT (3/3) 10:41 AM COT (3/3)
Length of Visible Light 12h 44m
Length of Day
12h 02m
Waning Gibbous, 64% of the Moon is Illuminated
Mar 3
Waning Gibbous
Mar 4
Last Quarter
Mar 11
New
Mar 19
First Quarter
Mar 27
Full

Hourly Weather History & Observations

Time (COT) Temp. Windchill Dew Point Humidity Pressure Visibility Wind Dir Wind Speed Gust Speed Precip Events Conditions
12:00 AM 50.0 °F - 42.8 °F 76% 30.35 in 6.2 mi Variable 2.3 mph - N/A   Scattered Clouds
1:00 AM 47 °F - 42 °F 76%  in 11 mi WNW 6.7 mph - -   Haze
1:00 AM 46.4 °F 43.5 °F 41.0 °F 81% 30.32 in 6.2 mi WNW 5.8 mph - N/A   Partly Cloudy
2:00 AM 46.4 °F 44.3 °F 42.8 °F 87% 30.30 in 6.2 mi NE 4.6 mph - N/A   Partly Cloudy
3:00 AM 48.2 °F - 42.8 °F 82% 30.29 in 6.2 mi NNE 4.6 mph - N/A   Scattered Clouds
4:00 AM 48 °F - 45 °F 84%  in 11 mi NE 6.7 mph - -   Haze
4:00 AM 48.2 °F - 44.6 °F 87% 30.29 in 6.2 mi NE 5.8 mph - N/A   Scattered Clouds
5:00 AM 50.0 °F - 44.6 °F 82% 30.29 in 6.2 mi NE 5.8 mph - N/A   Scattered Clouds
5:31 AM 48.2 °F - 46.4 °F 93% 30.30 in 6.2 mi NNE 4.6 mph - N/A   Partly Cloudy
6:00 AM 48.2 °F - 44.6 °F 87% 30.31 in 6.2 mi NE 4.6 mph - N/A   Partly Cloudy
7:00 AM 49 °F - 46 °F 84%  in 11 mi NE 8.9 mph - -   Haze
7:00 AM 50.0 °F - 46.4 °F 87% 30.33 in 6.2 mi NE 9.2 mph - N/A   Scattered Clouds
8:00 AM 53.6 °F - 46.4 °F 77% 30.36 in 6.2 mi NE 6.9 mph - N/A   Mostly Cloudy
9:00 AM 57.2 °F - 48.2 °F 72% 30.39 in 6.2 mi NNE 6.9 mph - N/A   Scattered Clouds
10:00 AM 58 °F - 48 °F 60%  in 11 mi NNE 11.2 mph - -   Haze
10:00 AM 57.2 °F - 48.2 °F 72% 30.40 in 6.2 mi NNE 11.5 mph - N/A   Scattered Clouds
11:00 AM 59.0 °F - 48.2 °F 67% 30.38 in - NNE 6.9 mph - N/A   Scattered Clouds
12:00 PM 59.0 °F - 48.2 °F 67% 30.37 in 6.2 mi North 9.2 mph - N/A   Mostly Cloudy
1:00 PM 61 °F - 46 °F 47%  in 11 mi NW 6.7 mph - -   Haze
1:00 PM 60.8 °F - 46.4 °F 59% 30.34 in 6.2 mi NW 5.8 mph - N/A   Scattered Clouds
2:00 PM 60.8 °F - 46.4 °F 59% 30.31 in 6.2 mi NNW 3.5 mph - N/A   Scattered Clouds
3:00 PM 60.8 °F - 48.2 °F 63% 30.29 in 6.2 mi NNE 5.8 mph - N/A   Scattered Clouds
4:00 PM 62 °F - 46 °F 46%  in 11 mi NE 4.5 mph - -   Haze
4:00 PM 62.6 °F - 46.4 °F 55% 30.27 in 6.2 mi NE 3.5 mph - N/A   Scattered Clouds
5:00 PM 64.4 °F - 46.4 °F 52% 30.27 in 6.2 mi North 5.8 mph - N/A   Scattered Clouds
6:00 PM 62.6 °F - 48.2 °F 59% 30.28 in 6.2 mi North 3.5 mph - N/A   Scattered Clouds
7:00 PM 58 °F - 53 °F 78%  in 11 mi WSW 6.7 mph - -   Haze
7:00 PM 57.2 °F - 53.6 °F 88% 30.29 in 6.2 mi WSW 6.9 mph - N/A   Scattered Clouds
8:00 PM 57.2 °F - 51.8 °F 82% 30.33 in 6.2 mi Variable 2.3 mph - N/A   Scattered Clouds
9:00 PM 55.4 °F - 51.8 °F 88% 30.35 in 6.2 mi NNE 3.5 mph - N/A   Scattered Clouds
10:00 PM 53 °F - 50 °F 87%  in 11 mi NNW 4.5 mph - -   Haze
10:00 PM 53.6 °F - 50.0 °F 88% 30.37 in 6.2 mi NNW 4.6 mph - N/A   Scattered Clouds
11:00 PM 53.6 °F - 51.8 °F 94% 30.37 in 6.2 mi NW 3.5 mph - N/A   Scattered Clouds